"Pseudo-MPEC" for P110BRx

Created 2020 May 23 18:07:09 UT using Find_Orb

Click here for an explanation of pseudo-MPECs

 
 Astrometry: 
     P110BRx  C2020 05 20nKuK*^QOCtw$[4S^MlAcc_b?H^=FseqHAstrometry6redacted;F51
     P110BRx  C2020 05 20V,B+P].QK;T/hQ+cj!%0#='I7lA_]Ql%6vus*MDE[.g[_LxOM$9PF51
     P110BRx  C2020 05 20A@yX3trp%clickdO`JiDQhC2vdm5jFd=JXGExXeuP[ndp.5`RfNOF51
     P110BRx  C2020 05 23y$mF9]lWp5!ph!(SP2i+S!4ha@/iIbm.,SUd-%y.Og/Wuhere`idF51
     P110BRx  C2020 05 23kI=F7,.1owZWkP?Q)N;6Tox]6.;1H^forum.99yy!1nSE%DPDOYsF51
     P110BRx  C2020 05 23kJ'`vdYb2r]YZPMYONjexplanationw'j%@!USNW/:ZMjDaR136jF51

Station data:
(F51) Pan-STARRS 1, Haleakala  (N20.707235 W156.255910)  US/Hawaii.
   Observers N. Primak, A. Schultz, S. Watters, J. Thiel, T. Goggia. Measurer
   PS1 Science Consortium. 1.8-m Ritchey-Chrétien + CCD.

Orbital elements:  P110BRx
   Perihelion 2020 Sep 1.168364 +/- 2.5 TT =  4:02:26 (JD 2459093.668364)
Epoch 2020 May 23.0 TT = JDT 2458992.5   Earth MOID: 0.0225   Ve: 0.0458
M 243.71183928 +/- 2.9              (J2000 ecliptic)          AutoNEOCP
n   1.14945182 +/- 0.00442          Peri.  150.90052 +/- 0.8
a   0.90255885 +/- 0.00231          Node   236.69274 +/- 0.09
e   0.3552685 +/- 0.0194            Incl.    3.42893 +/- 0.21
P   0.86/313.19d           H 25.4   G  0.15   U  9.1  
q 0.58190809 +/- 0.0177    Q 1.22320961 +/- 0.0177
From 6 observations 2020 May 20-23; mean residual 0".10
Residuals in arcseconds: 
200520 F51  .04-  .12+    200520 F51  .08-  .00     200523 F51  .18+  .12-    
200520 F51  .11+  .12-    200523 F51  .10-  .04+    200523 F51  .07-  .08+    

Ephemerides (geocentric):
Date (UTC) HH   RA              Dec         delta   r     elong  mag " sig PA
---- -- -- --  -------------   -----------  ------ ------ -----  --- ---- ---
2020 05 23 18  15 58 25.777   -16 29 51.61  .09976 1.1122 175.7 20.9 2.52  69
2020 05 23 19  15 58 07.086   -16 27 22.42  .09960 1.1120 175.6 20.9 2.83  76
2020 05 23 20  15 57 48.341   -16 24 52.67  .09944 1.1119 175.5 20.9 3.20  82
2020 05 23 21  15 57 29.544   -16 22 22.33  .09927 1.1117 175.4 20.9 3.61  87
2020 05 23 22  15 57 10.693   -16 19 51.42  .09911 1.1115 175.3 20.9 4.05  91
2020 05 23 23  15 56 51.789   -16 17 19.93  .09895 1.1114 175.2 20.9 4.51  94
2020 05 24 00  15 56 32.832   -16 14 47.86  .09879 1.1112 175.2 20.9 5.01  97
2020 05 24 01  15 56 13.821   -16 12 15.20  .09863 1.1110 175.1 20.9 5.53  99
2020 05 24 02  15 55 54.757   -16 09 41.95  .09846 1.1109 175.0 21.0 6.07 101
2020 05 24 03  15 55 35.640   -16 07 08.12  .09830 1.1107 174.9 21.0 6.62 103
2020 05 24 04  15 55 16.469   -16 04 33.70  .09814 1.1105 174.8 21.0 7.20 105
2020 05 24 05  15 54 57.244   -16 01 58.69  .09798 1.1104 174.7 21.0 7.80 106
2020 05 24 06  15 54 37.966   -15 59 23.08  .09782 1.1102 174.6 21.0 8.41 107
2020 05 24 07  15 54 18.633   -15 56 46.88  .09766 1.1100 174.5 21.0 9.05 108
2020 05 24 08  15 53 59.247   -15 54 10.09  .09750 1.1099 174.4 21.0 9.70 109
2020 05 24 09  15 53 39.806   -15 51 32.69  .09734 1.1097 174.3 21.0 10.4 110
2020 05 24 10  15 53 20.312   -15 48 54.70  .09719 1.1095 174.2 21.0 11.0 110
2020 05 24 11  15 53 00.763   -15 46 16.10  .09703 1.1094 174.1 21.0 11.8 111
2020 05 24 12  15 52 41.161   -15 43 36.89  .09687 1.1092 174.0 21.0 12.5 111
2020 05 24 13  15 52 21.503   -15 40 57.09  .09671 1.1090 173.9 21.0 13.2 112
2020 05 24 14  15 52 01.792   -15 38 16.67  .09655 1.1089 173.8 21.0 14.0 112
2020 05 24 15  15 51 42.026   -15 35 35.64  .09640 1.1087 173.7 21.0 14.7 113
2020 05 24 16  15 51 22.205   -15 32 54.01  .09624 1.1085 173.6 21.0 15.5 113
2020 05 24 17  15 51 02.329   -15 30 11.76  .09608 1.1084 173.4 21.0 16.3 114
2020 05 24 18  15 50 42.399   -15 27 28.89  .09593 1.1082 173.3 21.0 17.2 114
2020 05 24 19  15 50 22.414   -15 24 45.41  .09577 1.1080 173.2 21.0 18.0 114
2020 05 24 20  15 50 02.375   -15 22 01.31  .09562 1.1079 173.1 21.0 18.9 115
2020 05 24 21  15 49 42.280   -15 19 16.59  .09546 1.1077 173.0 21.0 19.7 115
2020 05 24 22  15 49 22.130   -15 16 31.24  .09531 1.1075 172.9 21.0 20.6 115
2020 05 24 23  15 49 01.925   -15 13 45.27  .09515 1.1074 172.8 21.0 21.5 115
2020 05 25 00  15 48 41.665   -15 10 58.68  .09500 1.1072 172.6 21.0 22.5 116
2020 05 25 01  15 48 21.350   -15 08 11.46  .09484 1.1070 172.5 21.0 23.4 116
2020 05 25 02  15 48 00.979   -15 05 23.61  .09469 1.1069 172.4 21.0 24.4 116
2020 05 25 03  15 47 40.553   -15 02 35.13  .09454 1.1067 172.3 21.0 25.4 116
2020 05 25 04  15 47 20.072   -14 59 46.02  .09439 1.1065 172.2 21.0 26.4 116
2020 05 25 05  15 46 59.535   -14 56 56.27  .09423 1.1064 172.1 21.0 27.4 117
2020 05 25 06  15 46 38.942   -14 54 05.89  .09408 1.1062 171.9 21.0 28.5 117
2020 05 25 07  15 46 18.294   -14 51 14.86  .09393 1.1060 171.8 21.0 29.5 117
2020 05 25 08  15 45 57.590   -14 48 23.20  .09378 1.1059 171.7 21.0 30.6 117
2020 05 25 09  15 45 36.830   -14 45 30.90  .09363 1.1057 171.6 21.0 31.7 117
2020 05 25 10  15 45 16.014   -14 42 37.95  .09348 1.1055 171.4 21.0 32.8 117
2020 05 25 11  15 44 55.143   -14 39 44.36  .09333 1.1053 171.3 21.0 34.0 118
2020 05 25 12  15 44 34.215   -14 36 50.13  .09318 1.1052 171.2 21.0 35.1 118
2020 05 25 13  15 44 13.231   -14 33 55.24  .09303 1.1050 171.1 21.0 36.3 118
2020 05 25 14  15 43 52.191   -14 30 59.71  .09288 1.1048 170.9 21.0 37.5 118
2020 05 25 15  15 43 31.095   -14 28 03.52  .09273 1.1047 170.8 21.0 38.7 118
2020 05 25 16  15 43 09.943   -14 25 06.68  .09258 1.1045 170.7 21.0 40.0 118
2020 05 25 17  15 42 48.734   -14 22 09.19  .09243 1.1043 170.6 21.0 41.3 118